11:37
Airports
History
Links
Donate
Help keep this website running!
PayPal
Bitcoin
This page is community maintained. The information is intended for PC simulator navigation or reference.
Always use approved charts for navigation.
SC33
Cox
Cox (SC33)
Greenville, South Carolina, United States (29607)
4
Lat/Lng:34° 49' 27.43" N / 82° 15' 35.42" W
34.824285 / -82.259838
Elevation:1000'ft / 305mMSL
ID / ICAO:SC33
Runways:1
Longest:10-28
Grass 483m / 1,584ft
Nearby Weather10:53 GMT 2018-01-23
Nearby weather at KGMU, Greenville Downtown located 5.4 nautical miles from SC33
Altimeter: 29.81
Visibility: 10.0 statute miles
Wind: 13 knots (from 250°)
Temp: 16°c / 61°f
Humidity: 72.2%

METAR: KGMU 231053Z AUTO 25013G23KT 10SM FEW043 SCT060 SCT075 16/11 A2981 RMK AO2 RAB23E32 SLP092 P0000 T01560111

(Powered by phpweather)
Nearby VORs <50NM
Nearby NDBs
Runway 10 / 28
Dimensions:482.8 x 15.2m 1584' x 50'ft
Surface:Grass
Runway 10 [A]Runway 28 [B]
Heading:096°TH 276°TH
Lat:
Lng:
34° 49' 28.25"N
82° 15' 44.99"W
34° 49' 26.6"N
82° 15' 25.85"W
User Notes and Comments
34° 49' 27.43" N / 82° 15' 35.42" W
Distance To
Airport ID:
Nearby Airports
(R) Hartness 1.6 NM
SC58 NNE 16°
(C) Greenville Downtown 5.4 NM
KGMU ( WX ) WNW 287°
(C) Greenville Spartanburg Intl 5.5 NM
KGSP ( WX ) NNE 25°
(R) Parker Field 7.1 NM
SC47 SE 127°
(C) Donaldson Center 8.0 NM
KGYH SW 235°
4 Riverbend Airpark 8.1 NM
SC97 SSW 213°
(R) Green Pond 10.0 NM
SC39 E 93°
VFR Chart
Flight Planning at SkyVector.com